This is the latest recevied weather packets stored in our database for station/object WB5CFT. If no packets are shown the sender has not sent any weather packets the latest 1 day(s).
| Time | Temp. | Humidity | Pressure | Rain* | Wind** | Luminosity | Snow |
|---|---|---|---|---|---|---|---|
| 1778089977 | 23.89° C | 29% | 1014.9 hPa | 0 mm | - | 808 W/m² | - |
| 1778089674 | 23.33° C | 33% | 1015.2 hPa | 0 mm | - | 659 W/m² | - |
| 1778089069 | 23.33° C | 33% | 1015.2 hPa | 0 mm | - | 786 W/m² | - |
| 1778086646 | 22.22° C | 36% | 1015.5 hPa | 0 mm | - | 718 W/m² | - |
| 1778086040 | 21.67° C | 36% | 1015.3 hPa | 0 mm | - | 696 W/m² | - |
| 1778085737 | 21.11° C | 37% | 1015.6 hPa | 0 mm | - | 686 W/m² | - |
| 1778084825 | 22.22° C | 38% | 1015.7 hPa | 0 mm | - | 651 W/m² | - |
| 1778083916 | 20° C | 42% | 1015.7 hPa | 0 mm | - | 611 W/m² | - |
| 1778083614 | 21.11° C | 40% | 1015.8 hPa | 0 mm | - | 598 W/m² | - |
| 1778083009 | 21.11° C | 44% | 1015.8 hPa | 0 mm | - | 49 W/m² | - |
| 1778082706 | 20° C | 44% | 1015.8 hPa | 0 mm | - | 48 W/m² | - |
| 1778081568 | 20° C | 44% | 1015.9 hPa | 0 mm | - | 48 W/m² | - |
| 1778080962 | 18.89° C | 45% | 1015.8 hPa | 0 mm | - | 220 W/m² | - |
| 1778079751 | 19.44° C | 48% | 1015.7 hPa | 0 mm | - | 264 W/m² | - |
| 1778079448 | 18.33° C | 50% | 1015.9 hPa | 0 mm | - | 90 W/m² | - |
| 1778078842 | 17.78° C | 51% | 1016.1 hPa | 0 mm | - | 44 W/m² | - |
| 1778078539 | 17.78° C | 51% | 1016.1 hPa | 0 mm | - | 44 W/m² | - |
| 1778078236 | 16.67° C | 52% | 1016.2 hPa | 0 mm | - | 43 W/m² | - |
| 1778077934 | 16.67° C | 52% | 1016.2 hPa | 0 mm | - | 43 W/m² | - |
| 1778076423 | 16.67° C | 53% | 1016.1 hPa | 0 mm | - | 113 W/m² | - |
| 1778074603 | 15.56° C | 58% | 1016 hPa | 0 mm | - | 135 W/m² | - |
| 1778073997 | 15° C | 59% | 1015.9 hPa | 0 mm | - | 113 W/m² | - |
| 1778072482 | 14.44° C | 59% | 1015.1 hPa | 0 mm | - | 25 W/m² | - |
| 1778071273 | 14.44° C | 57% | 1015 hPa | 0 mm | - | 15 W/m² | - |
| 1778070970 | 14.44° C | 56% | 1014.8 hPa | 0 mm | - | 13 W/m² | - |
* Rain latest hour (hover to see other rain measurements)
** Current wind speed in m/s (hover to see current wind gust speed)